Previsão horária em Barrancas

Hoje, 30 Outubro, Sexta-feira

Tempo Temperatura Precipitação Vento Pressão Humidade
00:00 +25°C° 1 mm 1 m/s 736 mmHg 92%
01:00 +25°C° 1 mm 1 m/s 735 mmHg 93%
02:00 +25°C° 0.2 mm 1 m/s 736 mmHg 92%
03:00 +25°C° 0.2 mm 1 m/s 736 mmHg 92%
04:00 +24°C° 0.2 mm 1 m/s 736 mmHg 91%
05:00 +25°C° 0 mm 1 m/s 736 mmHg 88%
06:00 +26°C° 0 mm 1 m/s 737 mmHg 86%
07:00 +25°C° 0 mm 0 m/s 737 mmHg 83%
08:00 +29°C° 0.1 mm 1 m/s 738 mmHg 78%
09:00 +30°C° 0.1 mm 1 m/s 738 mmHg 72%
10:00 +32°C° 0.1 mm 2 m/s 738 mmHg 67%
11:00 +32°C° 1.3 mm 2 m/s 737 mmHg 69%
12:00 +32°C° 1.3 mm 1 m/s 736 mmHg 72%
13:00 +32°C° 1.3 mm 1 m/s 735 mmHg 74%
14:00 +31°C° 1.1 mm 1 m/s 735 mmHg 77%
15:00 +31°C° 1.1 mm 1 m/s 735 mmHg 80%
16:00 +28°C° 1.1 mm 0 m/s 734 mmHg 83%
17:00 +27°C° 0.3 mm 0 m/s 735 mmHg 85%
18:00 +28°C° 0.3 mm 1 m/s 735 mmHg 87%
19:00 +27°C° 0.3 mm 1 m/s 736 mmHg 89%
20:00 +27°C° 1.6 mm 1 m/s 736 mmHg 91%
21:00 +26°C° 1.6 mm 1 m/s 737 mmHg 92%
22:00 +26°C° 1.6 mm 1 m/s 737 mmHg 94%
23:00 +26°C° 0.9 mm 1 m/s 737 mmHg 94%

Amanhã, 31 Outubro, Sábado

Tempo Temperatura Precipitação Vento Pressão Humidade
00:00 +25°C° 0.9 mm 1 m/s 736 mmHg 94%
01:00 +25°C° 0.9 mm 1 m/s 736 mmHg 95%
02:00 +25°C° 0.2 mm 1 m/s 736 mmHg 94%
03:00 +25°C° 0.2 mm 1 m/s 736 mmHg 93%
04:00 +25°C° 0.2 mm 1 m/s 736 mmHg 93%
05:00 +25°C° 0.1 mm 1 m/s 737 mmHg 92%
06:00 +25°C° 0.1 mm 1 m/s 737 mmHg 91%
07:00 +26°C° 0.1 mm 1 m/s 738 mmHg 90%
08:00 +27°C° 0 mm 1 m/s 738 mmHg 82%
09:00 +29°C° 0 mm 1 m/s 739 mmHg 74%
10:00 +31°C° 0 mm 1 m/s 739 mmHg 66%
11:00 +31°C° 0.3 mm 1 m/s 738 mmHg 66%
12:00 +32°C° 0.3 mm 1 m/s 737 mmHg 65%
13:00 +32°C° 0.3 mm 1 m/s 736 mmHg 64%
14:00 +32°C° 0.1 mm 1 m/s 735 mmHg 66%
15:00 +32°C° 0.1 mm 1 m/s 735 mmHg 68%
16:00 +32°C° 0.1 mm 1 m/s 735 mmHg 71%
17:00 +30°C° 0.3 mm 1 m/s 735 mmHg 76%
18:00 +29°C° 0.3 mm 1 m/s 735 mmHg 82%
19:00 +27°C° 0.3 mm 1 m/s 736 mmHg 87%
20:00 +27°C° 0.2 mm 1 m/s 736 mmHg 88%
21:00 +26°C° 0.2 mm 1 m/s 736 mmHg 89%
22:00 +26°C° 0.2 mm 1 m/s 737 mmHg 90%
23:00 +26°C° 0.4 mm 1 m/s 736 mmHg 90%

Depois de amanhã, 1 Novembro, Domingo

Tempo Temperatura Precipitação Vento Pressão Humidade
00:00 +25°C° 0.4 mm 1 m/s 736 mmHg 91%
01:00 +25°C° 0.4 mm 1 m/s 736 mmHg 91%
02:00 +25°C° 1.9 mm 1 m/s 736 mmHg 93%
03:00 +24°C° 1.9 mm 1 m/s 736 mmHg 94%
04:00 +24°C° 1.9 mm 1 m/s 736 mmHg 95%
05:00 +24°C° 1.9 mm 1 m/s 737 mmHg 96%
06:00 +24°C° 1.9 mm 1 m/s 737 mmHg 96%
07:00 +25°C° 1.9 mm 1 m/s 738 mmHg 96%
08:00 +25°C° 0.9 mm 1 m/s 738 mmHg 94%
09:00 +26°C° 0.9 mm 1 m/s 738 mmHg 92%
10:00 +27°C° 0.9 mm 1 m/s 738 mmHg 90%
11:00 +28°C° 1.4 mm 1 m/s 737 mmHg 86%
12:00 +29°C° 1.4 mm 2 m/s 736 mmHg 82%
13:00 +30°C° 1.4 mm 2 m/s 735 mmHg 77%
14:00 +30°C° 2 mm 1 m/s 735 mmHg 82%
15:00 +29°C° 2 mm 1 m/s 735 mmHg 86%
16:00 +29°C° 2 mm 1 m/s 735 mmHg 90%
17:00 +28°C° 2.1 mm 1 m/s 735 mmHg 91%
18:00 +26°C° 2.1 mm 2 m/s 736 mmHg 93%
19:00 +25°C° 2.1 mm 2 m/s 737 mmHg 94%
20:00 +25°C° 2.6 mm 2 m/s 737 mmHg 95%
21:00 +25°C° 2.6 mm 1 m/s 737 mmHg 96%
22:00 +25°C° 2.6 mm 1 m/s 737 mmHg 98%
23:00 +25°C° 5.9 mm 1 m/s 737 mmHg 98%

2 Novembro, Segunda-feira

Tempo Temperatura Precipitação Vento Pressão Humidade
00:00 +25°C° 5.9 mm 1 m/s 737 mmHg 98%
01:00 +24°C° 5.9 mm 1 m/s 736 mmHg 98%
02:00 +24°C° 3.5 mm 1 m/s 736 mmHg 98%
03:00 +24°C° 3.5 mm 1 m/s 736 mmHg 98%
04:00 +24°C° 3.5 mm 1 m/s 737 mmHg 98%
05:00 +22°C° 0.5 mm 0 m/s 737 mmHg 97%
06:00 +22°C° 0.5 mm 0 m/s 737 mmHg 96%
07:00 +22°C° 0.5 mm 0 m/s 738 mmHg 96%
08:00 +23°C° 0.1 mm 0 m/s 738 mmHg 94%
09:00 +23°C° 0.1 mm 0 m/s 738 mmHg 91%
10:00 +24°C° 0.1 mm 0 m/s 738 mmHg 89%
11:00 +27°C° 0 mm 1 m/s 737 mmHg 84%
12:00 +28°C° 0 mm 1 m/s 736 mmHg 78%
13:00 +29°C° 0 mm 1 m/s 736 mmHg 72%
14:00 +29°C° 0.2 mm 1 m/s 735 mmHg 74%
15:00 +29°C° 0.2 mm 1 m/s 735 mmHg 77%
16:00 +29°C° 0.2 mm 1 m/s 735 mmHg 80%
17:00 +28°C° 0.5 mm 1 m/s 735 mmHg 84%
18:00 +26°C° 0.5 mm 1 m/s 735 mmHg 89%
19:00 +25°C° 0.5 mm 1 m/s 736 mmHg 94%
20:00 +25°C° 0 mm 1 m/s 736 mmHg 94%
21:00 +25°C° 0 mm 1 m/s 736 mmHg 94%
22:00 +25°C° 0 mm 1 m/s 737 mmHg 94%
23:00 +25°C° 0.1 mm 1 m/s 736 mmHg 94%

3 Novembro, Terça-feira

Tempo Temperatura Precipitação Vento Pressão Humidade
00:00 +25°C° 0.1 mm 1 m/s 736 mmHg 94%
01:00 +25°C° 0.1 mm 1 m/s 736 mmHg 94%
02:00 +25°C° 0.2 mm 1 m/s 736 mmHg 94%
03:00 +24°C° 0.2 mm 1 m/s 736 mmHg 94%
04:00 +24°C° 0.2 mm 1 m/s 736 mmHg 94%
05:00 +23°C° 0.4 mm 0 m/s 737 mmHg 93%
06:00 +23°C° 0.4 mm 0 m/s 737 mmHg 92%
07:00 +23°C° 0.4 mm 0 m/s 738 mmHg 91%
08:00 +25°C° 0.8 mm 0 m/s 738 mmHg 87%
09:00 +26°C° 0.8 mm 0 m/s 738 mmHg 84%
10:00 +29°C° 0.8 mm 1 m/s 738 mmHg 81%
11:00 +29°C° 1.4 mm 1 m/s 737 mmHg 80%
12:00 +30°C° 1.4 mm 1 m/s 736 mmHg 78%
13:00 +30°C° 1.4 mm 1 m/s 736 mmHg 77%
14:00 +30°C° 0.7 mm 1 m/s 735 mmHg 78%
15:00 +30°C° 0.7 mm 1 m/s 735 mmHg 79%
16:00 +28°C° 0.7 mm 0 m/s 734 mmHg 79%
17:00 +26°C° 0.1 mm 0 m/s 735 mmHg 83%
18:00 +25°C° 0.1 mm 0 m/s 735 mmHg 87%
19:00 +24°C° 0.1 mm 0 m/s 736 mmHg 91%
20:00 +24°C° 0.4 mm 0 m/s 736 mmHg 92%
21:00 +23°C° 0.4 mm 0 m/s 737 mmHg 92%
22:00 +25°C° 0.4 mm 1 m/s 737 mmHg 93%
23:00 +25°C° 1.4 mm 1 m/s 737 mmHg 94%

4 Novembro, Quarta-feira

Tempo Temperatura Precipitação Vento Pressão Humidade
00:00 +25°C° 1.4 mm 1 m/s 737 mmHg 95%
01:00 +24°C° 1.4 mm 1 m/s 736 mmHg 96%
02:00 +24°C° 0.8 mm 1 m/s 736 mmHg 95%
03:00 +24°C° 0.8 mm 1 m/s 736 mmHg 95%
04:00 +24°C° 0.8 mm 1 m/s 736 mmHg 94%
05:00 +24°C° 1.1 mm 1 m/s 737 mmHg 94%
06:00 +25°C° 1.1 mm 1 m/s 737 mmHg 94%
07:00 +25°C° 1.1 mm 1 m/s 738 mmHg 94%
08:00 +26°C° 1.3 mm 1 m/s 738 mmHg 90%
09:00 +27°C° 1.3 mm 2 m/s 738 mmHg 87%
10:00 +28°C° 1.3 mm 2 m/s 739 mmHg 84%
11:00 +29°C° 0.8 mm 2 m/s 738 mmHg 78%
12:00 +31°C° 0.8 mm 2 m/s 737 mmHg 72%
13:00 +32°C° 0.8 mm 2 m/s 736 mmHg 66%
14:00 +31°C° 0.9 mm 2 m/s 736 mmHg 71%
15:00 +30°C° 0.9 mm 2 m/s 735 mmHg 77%
16:00 +30°C° 0.9 mm 2 m/s 735 mmHg 83%
17:00 +28°C° 0.7 mm 2 m/s 736 mmHg 86%
18:00 +27°C° 0.7 mm 1 m/s 736 mmHg 89%
19:00 +26°C° 0.7 mm 1 m/s 737 mmHg 92%
20:00 +26°C° 0.5 mm 1 m/s 737 mmHg 93%
21:00 +25°C° 0.5 mm 1 m/s 737 mmHg 94%
22:00 +25°C° 0.5 mm 1 m/s 737 mmHg 94%
23:00 +25°C° 0.2 mm 1 m/s 737 mmHg 94%
Mostrar mais